GW3926 Weather Reports


time (UTC)temp
C
wind
direction
speed
KPH
gust
KPH
rain 1hr
cm
rain 24hr
cm
rain mn
cm
humidity
%
barometer
mb
20260505065507 17 214 1.6 8.0 0.00 0.00 0.00 65 1006.5
20260505065006 18 118 1.6 6.4 0.00 0.00 0.00 64 1006.6
20260505064520 18 47 3.2 8.0 0.00 0.00 0.00 63 1006.5
20260505064010 18 243 0.0 14.5 0.00 0.00 0.00 62 1006.7
20260505063507 18 53 4.8 17.7 0.00 0.00 0.00 60 1006.6
20260505063024 19 206 3.2 24.1 0.00 0.00 0.00 57 1006.5
20260505062509 20 37 3.2 24.1 0.00 0.00 0.00 56 1006.3
20260505062013 21 333 0.0 9.7 0.00 0.00 0.00 60 1006.1
20260505061529 21 231 1.6 9.7 0.00 0.00 0.00 59 1005.0
20260505061009 21 229 3.2 11.3 0.00 0.00 0.00 59 1004.6
20260505060511 21 230 4.8 11.3 0.00 0.00 0.00 59 1004.6
20260505060033 21 221 3.2 16.1 0.00 0.00 0.00 59 1004.6
20260505055512 21 275 4.8 16.1 0.00 0.00 0.00 59 1004.5
20260505055014 21 232 3.2 12.9 0.00 0.00 0.00 59 1004.4
20260505054528 21 254 4.8 12.9 0.00 0.00 0.00 58 1004.2
20260505054012 21 229 4.8 14.5 0.00 0.00 0.00 58 1004.2
20260505053510 21 203 4.8 11.3 0.00 0.00 0.00 59 1004.2
20260505053025 21 226 4.8 11.3 0.00 0.00 0.00 58 1004.2
20260505052510 21 236 3.2 16.1 0.00 0.00 0.00 58 1004.1
20260505052011 21 229 4.8 16.1 0.00 0.00 0.00 58 1003.9
20260505051524 21 204 4.8 12.9 0.00 0.00 0.00 58 1003.8
20260505051008 21 223 4.8 12.9 0.00 0.00 0.00 57 1003.7
20260505050509 21 225 3.2 11.3 0.00 0.00 0.00 57 1003.6
20260505041524 21 191 4.8 14.5 0.00 0.00 0.00 58 1003.5
20260505041005 21 149 1.6 8.0 0.00 0.00 0.00 58 1003.4
20260505040504 21 213 4.8 11.3 0.00 0.00 0.00 58 1003.5
20260505040010 21 200 3.2 11.3 0.00 0.00 0.00 59 1003.5
20260505035508 21 181 1.6 4.8 0.00 0.00 0.00 59 1003.6
20260505035008 21 198 1.6 6.4 0.00 0.00 0.00 58 1003.7
20260505034511 21 190 1.6 6.4 0.00 0.00 0.00 58 1003.7
20260505034004 22 188 1.6 6.4 0.00 0.00 0.00 57 1003.9
20260505033508 22 183 3.2 9.7 0.00 0.00 0.00 57 1003.9
20260505033031 22 188 1.6 9.7 0.00 0.00 0.00 56 1003.9
20260505032506 22 195 3.2 6.4 0.00 0.00 0.00 55 1003.9
20260505032008 22 211 3.2 14.5 0.00 0.00 0.00 55 1003.8
20260505031520 22 219 3.2 14.5 0.00 0.00 0.00 55 1003.8
20260505031010 22 205 3.2 8.0 0.00 0.00 0.00 55 1003.8
20260505030510 22 175 1.6 8.0 0.00 0.00 0.00 56 1003.8
20260505030024 23 169 3.2 8.0 0.00 0.00 0.00 55 1003.8
20260505025503 23 232 3.2 8.0 0.00 0.00 0.00 55 1003.9
20260505025002 22 174 1.6 8.0 0.00 0.00 0.00 56 1003.8
20260505024513 23 197 0.0 8.0 0.00 0.00 0.00 56 1003.7
20260505024010 23 249 1.6 8.0 0.00 0.00 0.00 55 1003.6
20260505023505 22 214 3.2 8.0 0.00 0.00 0.00 56 1003.5
20260505023013 22 231 1.6 4.8 0.00 0.00 0.00 57 1003.5
20260505022510 22 202 1.6 4.8 0.00 0.00 0.00 56 1003.4
20260505022010 22 215 1.6 3.2 0.00 0.00 0.00 58 1003.3
20260505021522 22 227 0.0 4.8 0.00 0.00 0.00 59 1003.2
20260505021008 22 215 0.0 4.8 0.00 0.00 0.00 60 1003.0
20260505020507 22 186 0.0 3.2 0.00 0.00 0.00 60 1002.9
20260505020023 22 206 0.0 3.2 0.00 0.00 0.00 60 1002.9
20260505015507 22 206 0.0 3.2 0.00 0.00 0.00 59 1002.8
20260505015010 22 191 0.0 3.2 0.00 0.00 0.00 59 1002.7
20260505014534 22 178 0.0 3.2 0.00 0.00 0.00 59 1002.6
20260505014006 22 141 0.0 0.0 0.00 0.00 0.00 58 1002.5
20260505013503 22 143 0.0 0.0 0.00 0.00 0.00 58 1002.5
20260505013012 22 143 0.0 0.0 0.00 0.00 0.00 57 1002.4
20260505012507 22 143 0.0 0.0 0.00 0.00 0.00 57 1002.4
20260505012008 22 143 0.0 0.0 0.00 0.00 0.00 56 1002.3
20260505011515 23 217 0.0 0.0 0.00 0.00 0.00 56 1002.3
20260505011006 23 167 0.0 3.2 0.00 0.00 0.00 56 1002.2
20260505010509 23 132 0.0 3.2 0.00 0.00 0.00 56 1002.3
20260505010024 23 189 0.0 3.2 0.00 0.00 0.00 55 1002.2
20260505005508 23 182 0.0 3.2 0.00 0.00 0.00 54 1002.2
20260505005008 23 227 0.0 3.2 0.00 0.00 0.00 54 1002.2
20260505004526 24 240 1.6 3.2 0.00 0.00 0.00 53 1002.2
20260505004008 24 224 1.6 3.2 0.00 0.00 0.00 52 1002.1
20260505003510 24 224 1.6 6.4 0.00 0.00 0.00 52 1002.0
20260505003025 25 232 1.6 6.4 0.00 0.00 0.00 51 1002.0
20260505002508 25 230 1.6 6.4 0.00 0.00 0.00 51 1001.9
20260505002007 25 209 1.6 6.4 0.00 0.00 0.00 50 1001.9
20260505001517 25 180 1.6 4.8 0.00 0.00 0.00 50 1001.9
20260505001008 25 215 1.6 4.8 0.00 0.00 0.00 50 1001.9
20260505000506 25 213 1.6 6.4 0.00 0.00 0.00 50 1001.9
20260505000024 25 236 1.6 6.4 0.00 0.00 0.00 50 1001.8
20260504235507 26 317 1.6 6.4 0.00 0.00 0.00 50 1001.9
20260504235011 26 205 3.2 11.3 0.00 0.00 0.00 48 1002.0
20260504234524 26 240 1.6 11.3 0.00 0.00 0.00 49 1002.0
20260504234013 26 242 3.2 11.3 0.00 0.00 0.00 48 1001.9
20260504233507 26 197 1.6 6.4 0.00 0.00 0.00 49 1001.9
20260504233028 26 217 1.6 6.4 0.00 0.00 0.00 48 1002.0
20260504232511 26 164 1.6 8.0 0.00 0.00 0.00 48 1002.0
20260504232011 26 187 1.6 14.5 0.00 0.00 0.00 47 1002.1
20260504231516 26 227 4.8 14.5 0.00 0.00 0.00 45 1002.1
20260504231007 26 238 3.2 16.1 0.00 0.00 0.00 46 1002.2
20260504230506 26 222 4.8 16.1 0.00 0.00 0.00 45 1002.2
20260504230019 26 241 1.6 9.7 0.00 0.00 0.00 47 1002.2
20260504225508 26 277 4.8 8.0 0.00 0.00 0.00 45 1002.3
20260504225010 26 227 3.2 8.0 0.00 0.00 0.00 46 1002.4
20260504224533 26 242 4.8 12.9 0.00 0.00 0.00 45 1002.4
20260504224008 26 243 4.8 14.5 0.00 0.00 0.00 46 1002.3
20260504223510 26 251 8.0 16.1 0.00 0.00 0.00 44 1002.4
20260504223026 26 254 3.2 16.1 0.00 0.00 0.00 45 1002.4
20260504222508 26 215 6.4 9.7 0.00 0.00 0.00 45 1002.4
20260504222010 26 203 3.2 9.7 0.00 0.00 0.00 47 1002.5
20260504221526 26 224 1.6 9.7 0.00 0.00 0.00 48 1002.6
20260504221012 26 185 1.6 9.7 0.00 0.00 0.00 49 1002.6
20260504220510 26 158 1.6 8.0 0.00 0.00 0.00 48 1002.5
20260504220018 26 200 1.6 12.9 0.00 0.00 0.00 48 1002.6
20260504215505 27 225 4.8 12.9 0.00 0.00 0.00 46 1002.6
20260504215008 27 182 3.2 16.1 0.00 0.00 0.00 50 1002.5
20260504214527 27 249 6.4 20.9 0.00 0.00 0.00 47 1002.5
20260504214010 27 150 4.8 20.9 0.00 0.00 0.00 46 1002.6
20260504213510 27 127 3.2 11.3 0.00 0.00 0.00 47 1002.6
20260504213024 27 86 4.8 16.1 0.00 0.00 0.00 46 1002.7
20260504212508 27 273 6.4 17.7 0.00 0.00 0.00 48 1002.7
20260504212013 27 227 3.2 17.7 0.00 0.00 0.00 49 1002.7
20260504211528 27 261 6.4 17.7 0.00 0.00 0.00 49 1002.7
20260504211009 27 222 6.4 12.9 0.00 0.00 0.00 48 1002.9
20260504210509 27 197 3.2 9.7 0.00 0.00 0.00 50 1002.9
20260504210035 27 211 1.6 12.9 0.00 0.00 0.00 54 1002.7
20260504205511 26 228 6.4 12.9 0.00 0.00 0.00 52 1002.8
20260504205010 26 128 3.2 11.3 0.00 0.00 0.00 53 1002.7
20260504204529 26 186 1.6 11.3 0.00 0.00 0.00 55 1002.8
20260504204008 26 229 3.2 22.5 0.00 0.00 0.00 56 1002.9
20260504203510 26 198 8.0 22.5 0.00 0.00 0.00 52 1003.1
20260504203027 26 217 3.2 16.1 0.00 0.00 0.00 55 1003.1
20260504202509 25 72 6.4 14.5 0.00 0.00 0.00 57 1003.2
20260504202008 25 234 3.2 11.3 0.00 0.00 0.00 57 1003.3
20260504201525 25 175 3.2 12.9 0.00 0.00 0.00 59 1003.3
20260504201008 24 242 3.2 12.9 0.00 0.00 0.00 56 1003.4
20260504200508 25 227 3.2 11.3 0.00 0.00 0.00 58 1003.5
20260504200026 25 302 4.8 17.7 0.00 0.00 0.00 59 1003.7
20260504195505 24 129 3.2 17.7 0.00 0.00 0.00 60 1003.8
20260504195006 23 138 1.6 9.7 0.00 0.00 0.00 65 1003.9
20260504194516 23 239 3.2 11.3 0.00 0.00 0.00 62 1004.0
20260504194007 22 132 1.6 11.3 0.00 0.00 0.00 69 1004.0
20260504193508 22 193 3.2 11.3 0.00 0.00 0.00 64 1004.0
20260504193024 22 115 1.6 4.8 0.00 0.00 0.00 65 1004.0
20260504192510 21 139 1.6 9.7 0.00 0.00 0.00 67 1004.1
20260504192009 22 116 1.6 11.3 0.00 0.00 0.00 65 1004.3
20260504191503 22 215 3.2 11.3 0.00 0.00 0.00 63 1004.5
20260504191006 22 250 3.2 11.3 0.00 0.00 0.00 68 1004.4
20260504190506 21 170 3.2 11.3 0.00 0.00 0.00 66 1004.3
20260504190009 20 214 3.2 17.7 0.00 0.00 0.00 70 1004.0
20260504185507 18 229 4.8 17.7 0.00 0.00 0.00 71 1003.8
20260504185005 18 195 3.2 14.5 0.00 0.00 0.00 72 1003.7
20260504184516 18 173 8.0 16.1 0.00 0.00 0.00 71 1003.5
20260504184007 18 114 4.8 16.1 0.00 0.00 0.00 71 1004.0
20260504183512 18 139 4.8 16.1 0.00 0.00 0.00 71 1004.6
20260504183020 18 205 1.6 14.5 0.00 0.00 0.00 70 1004.7
20260504182508 18 209 1.6 9.7 0.00 0.00 0.00 66 1004.8
20260504182009 19 180 3.2 8.0 0.00 0.00 0.00 66 1005.2
20260504181521 19 194 1.6 6.4 0.00 0.00 0.00 65 1005.4
20260504181011 19 223 3.2 16.1 0.00 0.00 0.00 65 1005.3
20260504180512 19 148 4.8 16.1 0.00 0.00 0.00 65 1005.1
20260504180008 20 158 3.2 11.3 0.00 0.00 0.00 66 1005.0
20260504175506 20 215 3.2 11.3 0.00 0.00 0.00 64 1005.0
20260504175004 20 140 1.6 9.7 0.00 0.00 0.00 65 1005.1
20260504174511 20 215 3.2 8.0 0.00 0.00 0.00 65 1005.2
20260504174004 20 302 3.2 9.7 0.00 0.00 0.00 63 1005.2
20260504173506 20 223 1.6 12.9 0.00 0.00 0.00 63 1005.2
20260504173019 20 128 3.2 12.9 0.00 0.00 0.00 62 1005.3
20260504172508 20 235 1.6 9.7 0.00 0.00 0.00 63 1005.6
20260504172008 20 96 1.6 9.7 0.00 0.00 0.00 67 1005.7
20260504171524 20 153 1.6 8.0 0.00 0.00 0.00 64 1005.7
20260504171013 19 224 3.2 8.0 0.00 0.00 0.00 64 1005.8
20260504170510 19 201 1.6 6.4 0.00 0.00 0.00 65 1005.9
20260504151009 17 133 1.6 9.7 0.00 0.00 0.00 66 1006.5
20260504150511 17 199 0.0 8.0 0.00 0.00 0.00 65 1007.1
20260504141007 18 223 0.0 8.0 0.00 0.00 0.00 62 1007.2
20260504140507 18 228 3.2 8.0 0.00 0.00 0.00 61 1007.2
20260504130509 17 230 3.2 8.0 0.00 0.00 0.00 65 1007.7
20260504110508 14 155 0.0 0.0 0.00 0.00 0.00 74 1008.1
20260504100505 15 227 0.0 0.0 0.00 0.00 0.00 69 1008.2
20260504081521 13 42 0.0 0.0 0.00 0.00 0.00 77 1008.3
20260504081011 14 42 0.0 0.0 0.00 0.00 0.00 75 1008.4
20260504080511 15 42 0.0 0.0 0.00 0.00 0.00 75 1008.5